This demonstration page uses our WeatherBlox Daily Observations layout. Learn more.

Left ArrowRight Arrow

31.31129, -92.44514

Hourly Observations for August 7, 2022

Temp ( °F °C ) Dew Point ( °F °C ) Humidity (%) Winds ( mph kmh ) Pressure ( in mb ) Visibility ( mi km ) Precip ( " mm )
12:53 am 00:53 Clear 78 25.6 74 23.3 87 87 SE 7 11 30.10 1019 10 16 0.00 0.00
1:53 am 01:53 Clear 77 25 74 23.3 90 90 SSE 6 9 30.08 1019 10 16 0.00 0.00
2:53 am 02:53 Clear 78 25.6 74 23.3 87 87 ESE 7 11 30.09 1019 10 16 0.00 0.00
3:53 am 03:53 Clear 77 25 74 23.3 90 90 SE 6 9 30.09 1019 10 16 0.00 0.00
4:53 am 04:53 Clear 77 25 73 22.8 88 88 Calm 30.10 1019 10 16 0.00 0.00
5:53 am 05:53 Clear 76 24.4 73 22.8 91 91 Calm 30.11 1020 7 11 0.00 0.00
6:53 am 06:53 Sunny 75 23.9 72 22.2 90 90 Calm 30.14 1021 8 13 0.00 0.00
7:53 am 07:53 Sunny 79 26.1 75 23.9 88 88 ESE 6 9 30.16 1021 9 14 0.00 0.00
8:53 am 08:53 Sunny 83 28.3 76 24.4 79 79 SSE 6 9 30.17 1022 10 16 0.00 0.00
9:53 am 09:53 Sunny 86 30 75 23.9 70 70 S 5 7 30.16 1021 10 16 0.00 0.00
10:53 am 10:53 Partly Cloudy 89 31.7 74 23.3 61 61 SE 6 9 30.16 1021 10 16 0.00 0.00
11:53 am 11:53 Partly Cloudy 90 32.2 74 23.3 59 59 VRB 3 6 30.15 1021 10 16 0.00 0.00
12:53 pm 12:53 Cloudy 93 33.9 72 22.2 50 50 VRB 5 7 30.12 1020 10 16 0.00 0.00
1:53 pm 13:53 Mostly Sunny 95 35 70 21.1 44 44 VRB 6 9 30.10 1019 10 16 0.00 0.00
2:53 pm 14:53 Partly Cloudy 94 34.4 71 21.7 48 48 ESE 9 15 30.07 1018 10 16 0.00 0.00
3:53 pm 15:53 Mostly Cloudy 93 33.9 70 21.1 47 47 S 8 13 30.05 1018 10 16 0.00 0.00
4:04 pm 16:04 Cloudy with Nearby Thunderstorms 92 33.3 72 22.2 52 52 SSE 10 17 30.04 1017 10 16 0.00 0.00
4:53 pm 16:53 Sunny with Nearby Thunderstorms 87 30.6 72 22.2 61 61 Calm 30.06 1018 10 16 0.00 0.00
5:21 pm 17:21 Sunny 87 30.6 74 23.3 65 65 SW 7 11 30.04 1017 10 16 0.00 0.00
5:53 pm 17:53 Sunny 87 30.6 74 23.3 65 65 SSW 5 7 30.06 1018 10 16 0.00 0.00
6:53 pm 18:53 Sunny 85 29.4 71 21.7 63 63 S 12 19 30.07 1018 10 16 0.00 0.00
7:53 pm 19:53 Sunny 82 27.8 71 21.7 69 69 SSE 9 15 30.07 1018 10 16 0.00 0.00
8:53 pm 20:53 Clear 79 26.1 71 21.7 77 77 Calm 30.07 1018 10 16 0.00 0.00
9:53 pm 21:53 Clear 79 26.1 70 21.1 74 74 Calm 30.09 1019 10 16 0.00 0.00
10:53 pm 22:53 Clear 77 25 70 21.1 79 79 Calm 30.09 1019 10 16 0.00 0.00
11:53 pm 23:53 Clear 76 24.4 70 21.1 82 82 Calm 30.09 1019 10 16 0.00 0.00

Powered by AerisWeather